• In Czech Republic
  • List of Countries
  • For 7 days
  • Water Temperature
  • Satellite Maps
  • Weather Map
  • Weather Widgets
  • user-avatar
    Login

    Hourly Weather Baku

    Today, 17 October, Tuesday

    Time Temperature Precipitation Wind Pressure Humidity
    00:00 +13°C° 0 mm 11 mps 761 mmHg 61%
    01:00 +12°C° 0.1 mm 10 mps 761 mmHg 62%
    02:00 +12°C° 0.1 mm 9 mps 761 mmHg 63%
    03:00 +11°C° 0 mm 7 mps 761 mmHg 71%
    04:00 +11°C° 0.8 mm 6 mps 762 mmHg 73%
    05:00 +11°C° 0.8 mm 6 mps 762 mmHg 75%
    06:00 +10°C° 0.8 mm 6 mps 762 mmHg 78%
    07:00 +10°C° 1.1 mm 5 mps 763 mmHg 77%
    08:00 +10°C° 1.1 mm 5 mps 763 mmHg 77%
    09:00 +10°C° 0 mm 5 mps 763 mmHg 78%
    10:00 +12°C° 0.6 mm 5 mps 763 mmHg 75%
    11:00 +12°C° 0.6 mm 4 mps 764 mmHg 73%
    12:00 +13°C° 0.6 mm 4 mps 764 mmHg 70%
    13:00 +13°C° 0.1 mm 4 mps 764 mmHg 68%
    14:00 +14°C° 0.1 mm 4 mps 764 mmHg 67%
    15:00 +15°C° 0 mm 4 mps 764 mmHg 64%
    16:00 +14°C° 0 mm 4 mps 764 mmHg 66%
    17:00 +14°C° 0 mm 4 mps 764 mmHg 68%
    18:00 +14°C° 0 mm 4 mps 764 mmHg 70%
    19:00 +15°C° 0.1 mm 5 mps 764 mmHg 71%
    20:00 +15°C° 0.1 mm 5 mps 764 mmHg 72%
    21:00 +15°C° 0.1 mm 5 mps 765 mmHg 73%
    22:00 +15°C° 0.1 mm 5 mps 765 mmHg 73%
    23:00 +15°C° 0.1 mm 6 mps 765 mmHg 73%

    Tomorrow, 18 October, Wednesday

    Time Temperature Precipitation Wind Pressure Humidity
    00:00 +15°C° 0.1 mm 6 mps 765 mmHg 73%
    01:00 +15°C° 0 mm 6 mps 765 mmHg 70%
    02:00 +15°C° 0 mm 7 mps 764 mmHg 67%
    03:00 +15°C° 0 mm 7 mps 764 mmHg 64%
    04:00 +15°C° 0 mm 6 mps 765 mmHg 61%
    05:00 +15°C° 0 mm 6 mps 765 mmHg 58%
    06:00 +15°C° 0 mm 5 mps 765 mmHg 56%
    07:00 +16°C° 0 mm 5 mps 766 mmHg 51%
    08:00 +18°C° 0 mm 4 mps 766 mmHg 47%
    09:00 +19°C° 0 mm 3 mps 767 mmHg 43%
    10:00 +19°C° 0 mm 4 mps 767 mmHg 45%
    11:00 +19°C° 0 mm 4 mps 767 mmHg 47%
    12:00 +20°C° 0 mm 4 mps 767 mmHg 50%
    13:00 +20°C° 0 mm 5 mps 767 mmHg 53%
    14:00 +20°C° 0 mm 5 mps 767 mmHg 57%
    15:00 +19°C° 0 mm 6 mps 767 mmHg 61%
    16:00 +19°C° 0 mm 6 mps 767 mmHg 65%
    17:00 +17°C° 0 mm 5 mps 768 mmHg 69%
    18:00 +17°C° 0 mm 5 mps 768 mmHg 73%
    19:00 +18°C° 0 mm 4 mps 768 mmHg 73%
    20:00 +17°C° 0 mm 3 mps 768 mmHg 73%
    21:00 +17°C° 0 mm 2 mps 769 mmHg 73%
    22:00 +17°C° 0 mm 2 mps 768 mmHg 73%
    23:00 +17°C° 0 mm 2 mps 768 mmHg 73%

    Day after tomorrow, 19 October, Thursday

    Time Temperature Precipitation Wind Pressure Humidity
    00:00 +17°C° 0 mm 2 mps 768 mmHg 73%
    01:00 +17°C° 0 mm 2 mps 768 mmHg 73%
    02:00 +17°C° 0 mm 3 mps 768 mmHg 72%
    03:00 +17°C° 0 mm 3 mps 768 mmHg 72%
    04:00 +17°C° 0 mm 4 mps 768 mmHg 73%
    05:00 +17°C° 0 mm 4 mps 768 mmHg 74%
    06:00 +16°C° 0 mm 5 mps 767 mmHg 75%
    07:00 +17°C° 0 mm 5 mps 768 mmHg 75%
    08:00 +17°C° 0 mm 6 mps 768 mmHg 74%
    09:00 +19°C° 0 mm 6 mps 768 mmHg 73%
    10:00 +18°C° 0.1 mm 7 mps 767 mmHg 74%
    11:00 +18°C° 0.1 mm 7 mps 767 mmHg 74%
    12:00 +20°C° 0.1 mm 7 mps 766 mmHg 75%
    13:00 +20°C° 0.1 mm 7 mps 766 mmHg 74%
    14:00 +20°C° 0.1 mm 7 mps 765 mmHg 73%
    15:00 +21°C° 0.1 mm 7 mps 765 mmHg 72%
    16:00 +20°C° 0 mm 7 mps 765 mmHg 74%
    17:00 +20°C° 0 mm 7 mps 765 mmHg 75%
    18:00 +20°C° 0 mm 7 mps 765 mmHg 77%
    19:00 +20°C° 0 mm 7 mps 765 mmHg 77%
    20:00 +19°C° 0 mm 6 mps 765 mmHg 77%
    21:00 +19°C° 0 mm 6 mps 765 mmHg 77%
    22:00 +19°C° 0 mm 5 mps 764 mmHg 77%
    23:00 +19°C° 0 mm 5 mps 764 mmHg 78%

    20 October, Friday

    Time Temperature Precipitation Wind Pressure Humidity
    00:00 +19°C° 0 mm 4 mps 764 mmHg 78%
    01:00 +18°C° 0 mm 4 mps 763 mmHg 79%
    02:00 +18°C° 0 mm 4 mps 763 mmHg 79%
    03:00 +18°C° 0 mm 3 mps 763 mmHg 80%
    04:00 +18°C° 0 mm 3 mps 763 mmHg 79%
    05:00 +18°C° 0 mm 3 mps 763 mmHg 79%
    06:00 +17°C° 0 mm 3 mps 763 mmHg 79%
    07:00 +18°C° 0 mm 3 mps 763 mmHg 73%
    08:00 +19°C° 0 mm 3 mps 763 mmHg 67%
    09:00 +20°C° 0 mm 3 mps 763 mmHg 61%
    10:00 +20°C° 0 mm 2 mps 763 mmHg 57%
    11:00 +21°C° 0 mm 2 mps 762 mmHg 53%
    12:00 +21°C° 0 mm 2 mps 762 mmHg 49%
    13:00 +23°C° 0 mm 2 mps 762 mmHg 49%
    14:00 +23°C° 0 mm 2 mps 762 mmHg 48%
    15:00 +23°C° 0 mm 2 mps 761 mmHg 48%
    16:00 +21°C° 0 mm 2 mps 762 mmHg 52%
    17:00 +20°C° 0 mm 2 mps 762 mmHg 56%
    18:00 +20°C° 0 mm 2 mps 762 mmHg 61%
    19:00 +19°C° 0 mm 2 mps 762 mmHg 64%
    20:00 +19°C° 0 mm 2 mps 762 mmHg 67%
    21:00 +19°C° 0 mm 2 mps 762 mmHg 71%
    22:00 +19°C° 0 mm 2 mps 762 mmHg 70%
    23:00 +18°C° 0 mm 2 mps 762 mmHg 70%

    21 October, Saturday

    Time Temperature Precipitation Wind Pressure Humidity
    00:00 +18°C° 0 mm 2 mps 762 mmHg 70%
    01:00 +18°C° 0 mm 2 mps 762 mmHg 69%
    02:00 +18°C° 0 mm 2 mps 762 mmHg 69%
    03:00 +18°C° 0 mm 2 mps 762 mmHg 68%
    04:00 +18°C° 0 mm 2 mps 762 mmHg 68%
    05:00 +17°C° 0 mm 2 mps 762 mmHg 68%
    06:00 +17°C° 0 mm 2 mps 762 mmHg 68%
    07:00 +18°C° 0 mm 2 mps 762 mmHg 64%
    08:00 +20°C° 0 mm 1 mps 762 mmHg 60%
    09:00 +21°C° 0 mm 1 mps 763 mmHg 56%
    10:00 +21°C° 0 mm 1 mps 762 mmHg 54%
    11:00 +21°C° 0 mm 2 mps 762 mmHg 52%
    12:00 +23°C° 0 mm 2 mps 762 mmHg 50%
    13:00 +23°C° 0 mm 2 mps 761 mmHg 50%
    14:00 +23°C° 0 mm 2 mps 761 mmHg 50%
    15:00 +22°C° 0 mm 3 mps 761 mmHg 50%
    16:00 +22°C° 0 mm 3 mps 761 mmHg 56%
    17:00 +21°C° 0 mm 3 mps 761 mmHg 62%
    18:00 +20°C° 0 mm 3 mps 762 mmHg 68%
    19:00 +20°C° 0 mm 3 mps 762 mmHg 71%
    20:00 +20°C° 0 mm 2 mps 762 mmHg 74%
    21:00 +19°C° 0 mm 2 mps 762 mmHg 77%
    22:00 +19°C° 0 mm 2 mps 762 mmHg 78%
    23:00 +19°C° 0 mm 2 mps 762 mmHg 79%

    22 October, Sunday

    Time Temperature Precipitation Wind Pressure Humidity
    00:00 +19°C° 0 mm 2 mps 761 mmHg 80%
    01:00 +20°C° 0 mm 1 mps 761 mmHg 80%
    02:00 +19°C° 0 mm 1 mps 761 mmHg 81%
    03:00 +19°C° 0 mm 1 mps 761 mmHg 81%
    04:00 +18°C° 0 mm 2 mps 761 mmHg 81%
    05:00 +18°C° 0 mm 2 mps 761 mmHg 81%
    06:00 +18°C° 0 mm 2 mps 761 mmHg 80%
    07:00 +19°C° 0 mm 3 mps 761 mmHg 76%
    08:00 +19°C° 0 mm 3 mps 762 mmHg 72%
    09:00 +20°C° 0 mm 3 mps 762 mmHg 68%
    10:00 +21°C° 0 mm 3 mps 761 mmHg 64%
    11:00 +21°C° 0 mm 4 mps 761 mmHg 61%
    12:00 +22°C° 0 mm 4 mps 761 mmHg 57%
    13:00 +22°C° 0 mm 4 mps 761 mmHg 57%
    14:00 +22°C° 0 mm 3 mps 760 mmHg 57%
    15:00 +22°C° 0 mm 3 mps 760 mmHg 57%
    16:00 +21°C° 0.1 mm 4 mps 761 mmHg 64%
    17:00 +20°C° 0.1 mm 4 mps 761 mmHg 70%
    18:00 +19°C° 0.1 mm 5 mps 761 mmHg 76%
    19:00 +19°C° 0.1 mm 5 mps 762 mmHg 75%
    20:00 +19°C° 0.1 mm 6 mps 762 mmHg 75%
    21:00 +17°C° 0.1 mm 7 mps 762 mmHg 74%
    22:00 +17°C° 0 mm 7 mps 762 mmHg 76%
    23:00 +17°C° 0 mm 8 mps 762 mmHg 78%
    Show more